Wind_Speed
40 40 41 41 40 40 40 41 42 42 41 41 40 40 40 39 38 37 36 36 35 35 36 36 35 34 34 34 34 34 34 33 32 31 31 31 30 29 28 27 27 27 26 24 22 21 20 20 19 18 18 18 16 15 14 14 13 12 11 11 12 11 11 11 9 8 8 8 8 7 7 7 8 6 6 6 5 6 7 8 9 10 10 11 12
41 41 40 40 40 40 40 40 41 41 41 41 40 40 39 38 37 36 36 36 36 36 37 37 36 35 34 34 34 35 35 35 34 33 32 32 31 30 30 29 28 28 27 26 24 23 22 22 21 19 19 20 19 18 16 16 15 14 13 13 13 12 12 12 11 9 9 9 9 9 7 7 8 7 6 7 7 6 7 8 9 10 10 11 12
41 41 39 39 41 41 40 40 40 41 41 41 40 40 39 37 36 36 36 36 36 37 38 38 37 36 35 35 35 35 35 36 35 35 34 33 32 31 31 31 30 29 29 28 26 25 24 24 23 20 19 20 21 20 18 17 16 16 15 14 14 13 12 12 12 11 11 11 10 10 9 9 10 9 8 9 9 9 9 9 10 11 11 12 13
39 39 39 39 40 39 39 39 40 40 41 40 40 39 39 37 36 36 36 36 36 37 38 38 38 37 36 35 35 35 36 36 36 36 36 35 34 32 32 32 31 30 30 30 28 27 26 25 24 23 21 20 21 21 20 19 18 17 16 16 16 14 13 13 14 14 13 12 12 13 12 12 12 11 11 12 12 11 12 12 12 13 14 15 16
38 39 39 39 38 39 40 40 39 40 40 39 39 39 39 37 36 36 36 36 37 37 38 38 39 38 37 36 36 37 37 37 37 37 37 36 35 33 32 33 33 32 31 30 30 29 28 28 26 24 23 22 22 22 21 21 20 18 17 17 17 16 15 14 14 15 15 16 16 16 15 15 15 14 13 14 14 14 14 15 15 15 16 17 17
38 38 39 38 39 40 40 41 41 40 40 39 39 39 39 38 37 37 37 37 38 38 38 39 39 40 39 38 37 38 38 38 38 38 37 37 35 33 32 32 33 32 32 31 30 30 30 29 28 26 25 24 23 23 22 21 21 20 19 18 18 17 16 15 15 16 17 18 19 18 17 17 17 16 15 15 15 15 16 16 16 15 15 17 18
38 39 39 39 40 41 42 42 41 41 41 40 40 40 40 40 39 38 38 38 39 39 39 39 40 41 40 39 39 39 39 39 40 39 37 36 35 33 32 32 32 32 32 31 30 30 30 30 29 28 28 26 26 25 23 22 22 22 21 20 18 18 17 16 17 18 19 19 20 20 19 18 19 18 17 16 16 16 16 17 17 17 16 17 19
39 39 39 39 41 43 44 43 42 42 41 41 42 42 41 41 40 39 39 39 40 41 40 40 40 40 40 39 39 39 40 40 41 40 37 36 35 34 33 32 32 31 31 31 31 31 30 30 29 29 29 28 28 27 25 23 22 22 22 20 19 19 18 18 18 19 20 20 20 20 20 19 19 19 18 17 17 16 14 14 17 19 19 18 19
40 40 39 41 43 44 42 41 42 42 41 42 42 42 41 41 40 40 40 40 41 41 40 40 40 40 39 39 39 39 40 42 42 41 38 36 36 35 34 33 32 32 31 31 31 31 30 30 30 30 29 29 28 27 26 24 23 22 21 21 20 20 20 20 20 20 20 20 21 20 18 19 20 19 17 17 16 15 13 13 16 18 18 20 21
39 39 40 42 43 41 40 40 40 41 42 43 42 42 41 41 40 40 41 41 40 40 39 39 40 40 40 39 39 40 41 42 43 42 40 38 37 36 35 33 32 32 31 31 31 31 31 31 31 30 28 27 27 26 26 25 23 22 21 20 20 20 21 22 21 21 20 20 21 19 17 20 21 17 16 17 15 14 13 14 15 16 16 18 20
38 40 42 42 40 39 39 39 40 41 42 43 42 41 41 40 40 41 41 41 40 39 39 39 40 41 40 39 40 41 42 43 43 42 41 39 38 36 35 34 33 32 32 32 32 31 31 32 30 28 26 26 27 26 25 25 23 23 22 22 21 21 21 22 21 21 20 20 21 19 18 20 21 16 14 15 14 13 13 13 14 14 14 14 14
39 41 42 39 38 39 39 39 40 41 42 42 41 41 41 40 40 40 40 41 40 39 39 40 40 40 40 40 41 41 43 43 43 42 41 40 39 37 35 34 33 32 33 33 33 32 32 30 27 25 25 26 27 26 25 24 23 23 23 23 23 22 21 21 21 21 21 20 21 20 19 19 19 16 13 13 13 13 13 13 12 13 14 14 14
39 39 39 37 38 39 39 39 39 41 41 41 40 39 39 40 41 40 40 40 39 39 40 41 41 41 41 41 41 42 42 42 42 42 41 40 39 38 36 34 33 33 34 34 34 34 32 28 26 27 27 25 25 27 26 25 24 23 22 22 24 24 22 22 21 21 22 21 21 21 19 17 17 15 12 11 12 13 13 13 13 13 13 14 16
37 37 37 37 38 39 38 39 40 40 40 39 38 38 39 40 41 40 39 38 39 40 40 41 41 42 42 41 41 40 40 41 41 41 40 40 39 38 37 34 33 34 35 35 36 36 32 29 28 29 27 24 25 26 27 26 24 23 23 23 24 24 23 22 21 22 23 23 22 21 17 14 14 12 10 11 13 14 13 13 13 13 13 14 16
36 36 36 37 37 37 38 40 40 39 38 37 37 38 39 40 40 39 38 38 39 39 39 40 41 42 42 41 40 39 39 39 39 39 40 39 38 38 37 34 33 34 35 36 36 33 29 28 28 28 25 23 24 26 27 27 25 25 24 24 24 24 23 22 21 21 20 19 19 17 13 11 11 10 10 11 13 13 13 12 12 12 13 13 14
33 33 34 36 37 38 39 39 38 37 37 37 37 38 39 40 40 38 37 37 38 37 38 40 40 40 40 39 39 38 36 36 37 38 38 38 37 37 37 35 35 35 35 35 34 30 27 27 27 26 25 23 22 25 26 26 26 26 25 25 24 24 22 20 18 16 13 12 13 11 9 9 10 10 11 12 12 12 11 11 12 11 10 10 10
32 33 35 37 38 38 39 38 37 36 36 36 38 39 40 40 39 38 37 36 36 37 38 38 38 38 38 39 39 37 34 34 36 37 37 37 36 37 37 36 35 35 36 37 35 32 29 27 25 24 24 22 21 23 24 25 26 26 26 25 24 23 21 19 16 12 9 9 9 9 9 9 10 11 11 11 11 11 10 11 11 10 9 8 8
33 34 35 36 37 38 39 39 38 37 37 39 40 40 40 40 39 39 39 38 37 38 38 37 38 38 39 40 40 37 32 32 35 35 36 37 36 37 38 37 34 34 36 36 33 29 25 23 22 22 22 21 20 21 22 24 26 26 26 25 24 22 21 18 13 9 8 9 9 9 10 10 10 10 9 9 9 10 11 11 11 10 9 8 8
35 36 37 38 39 39 39 39 39 38 39 41 42 42 42 41 40 40 40 40 39 38 38 37 38 39 40 40 39 36 31 31 33 34 35 36 37 38 39 38 36 36 35 31 28 25 23 23 22 21 21 20 20 20 21 23 26 26 26 25 23 22 21 15 10 8 8 8 9 9 10 10 9 8 8 9 10 11 11 10 9 9 9 9 8
36 37 37 36 36 37 38 39 40 40 42 44 44 43 42 39 39 39 40 41 39 37 38 39 39 39 40 39 37 35 32 31 32 34 35 37 37 38 39 39 39 40 37 32 28 26 26 25 24 23 21 20 20 19 20 22 25 25 25 25 24 23 18 12 8 7 7 8 8 9 9 9 9 8 9 10 10 10 9 8 7 7 8 9 8
33 33 32 32 34 36 38 40 43 44 45 45 42 41 40 39 39 40 39 38 37 37 38 39 38 38 38 38 37 35 34 34 34 34 36 38 39 39 40 42 42 41 40 36 31 27 25 25 26 25 22 20 20 20 20 21 22 23 25 26 25 20 15 10 8 7 7 8 9 10 10 9 8 8 8 8 8 7 7 7 7 7 6 7 7
31 31 32 34 36 37 39 41 43 44 44 42 39 39 40 39 39 39 38 37 37 37 38 37 36 36 36 37 37 35 35 37 37 36 37 39 40 40 41 42 41 39 36 35 32 29 26 25 25 25 22 20 20 20 18 18 20 24 26 25 20 15 11 9 8 7 8 9 11 10 10 8 8 7 6 5 5 6 5 5 5 5 5 5 6
29 30 32 34 35 37 39 40 40 40 40 40 40 40 39 39 39 39 38 37 36 36 36 36 34 33 33 35 35 34 35 38 39 38 39 40 41 41 41 39 38 37 34 33 33 31 28 27 26 25 22 20 19 19 17 18 22 26 26 22 16 12 11 10 8 8 9 10 11 10 8 7 6 6 5 6 6 5 4 3 3 4 5 6 8
23 26 29 32 34 36 38 38 39 38 37 37 37 37 37 38 40 40 40 38 35 33 34 33 32 30 29 30 30 32 36 38 38 39 40 40 41 42 44 42 38 34 32 32 32 30 28 28 27 25 21 19 18 19 18 20 23 25 22 18 15 14 12 11 10 10 11 11 10 9 7 6 5 6 7 8 7 5 4 4 5 6 7 8 10
18 23 26 28 30 33 34 36 37 39 38 37 37 37 38 37 36 37 37 36 34 33 32 32 31 30 29 28 28 30 35 39 39 38 39 40 41 42 46 46 39 30 28 30 29 28 27 26 24 21 19 18 19 19 19 19 20 20 18 16 16 15 13 12 12 12 12 11 9 7 5 6 7 8 8 7 6 6 5 6 6 7 8 10 12
14 21 24 25 27 27 28 29 32 35 36 37 38 39 39 36 34 34 34 33 34 33 31 31 30 29 29 29 28 29 34 38 40 40 39 40 42 44 46 45 38 30 27 26 25 25 24 22 19 19 19 20 20 19 19 18 17 17 16 16 16 15 14 13 13 12 11 9 7 6 6 8 9 9 8 7 6 6 6 7 8 9 10 11 13
9 12 16 20 24 25 26 28 30 31 33 34 35 36 35 34 34 33 32 33 33 32 30 29 29 30 30 28 27 29 32 36 40 43 43 43 44 46 45 43 38 32 27 24 23 22 21 19 18 19 20 19 19 18 18 17 17 17 17 16 16 15 14 12 11 10 9 8 8 8 10 11 10 9 8 7 6 6 7 8 9 10 10 11 12
9 8 9 12 15 18 23 27 29 31 32 33 34 35 35 36 36 36 38 39 36 33 31 30 30 30 28 26 27 28 29 34 40 45 47 47 46 45 43 41 37 32 29 26 24 22 21 21 21 21 21 21 20 19 18 18 18 18 18 17 16 15 13 11 10 9 9 10 11 12 12 11 10 8 8 7 7 7 8 9 9 10 10 10 11
9 8 8 8 10 12 15 19 23 26 30 32 35 38 39 39 39 40 44 47 45 42 39 37 36 33 28 26 27 26 25 31 40 45 46 47 48 47 46 43 38 34 32 30 28 26 26 26 26 24 24 23 22 21 20 20 20 19 18 17 16 14 12 12 11 11 11 13 14 13 12 10 9 7 7 8 7 7 8 8 9 9 10 10 9
13 11 11 10 10 10 12 14 17 20 23 26 30 35 39 41 42 41 43 47 50 49 47 45 43 38 30 27 29 28 25 30 39 43 45 47 48 48 48 46 40 37 35 32 30 30 29 28 27 26 25 24 23 22 22 21 21 20 19 17 14 13 12 12 12 12 13 14 14 13 11 9 8 8 8 8 7 7 8 9 9 9 9 8 8
16 16 16 15 14 14 13 13 14 16 19 22 24 27 32 37 41 41 41 44 47 49 47 43 41 41 39 34 30 28 28 31 36 41 44 46 46 46 47 45 41 38 37 34 31 31 29 27 26 26 26 24 23 22 22 22 21 20 18 16 14 13 13 13 14 14 14 15 14 13 11 10 9 8 8 8 7 7 8 9 9 8 7 6 7
12 13 14 14 14 15 15 15 15 15 16 19 23 27 29 30 33 35 36 37 42 47 46 40 39 44 45 39 33 33 32 31 33 37 39 41 44 45 45 44 41 38 36 33 30 28 28 27 26 26 25 24 23 21 21 21 19 17 16 15 15 14 14 14 14 15 15 16 15 13 12 10 9 8 8 8 8 9 10 9 8 7 6 6 7
11 10 10 11 11 12 12 13 14 16 17 17 18 20 22 20 18 19 23 28 35 42 46 46 46 45 42 38 38 39 36 31 30 34 35 36 40 42 42 40 39 37 35 31 28 27 26 26 25 26 25 23 21 20 19 18 16 15 14 14 14 15 15 14 15 15 16 16 15 13 12 10 10 10 9 9 10 11 10 9 7 6 6 7 8
11 10 9 10 11 11 12 13 14 14 14 14 17 19 19 16 10 11 14 14 17 26 38 46 48 45 40 38 40 39 36 34 35 36 37 37 38 40 39 38 37 34 32 29 27 27 26 25 24 24 23 21 19 18 17 16 15 14 14 14 14 14 14 15 16 17 17 16 14 13 12 11 11 10 9 10 11 11 9 7 6 5 6 7 8
10 10 10 11 11 12 13 13 14 15 15 16 21 24 22 15 5 7 13 11 5 5 23 37 46 49 45 39 39 39 39 40 40 39 39 40 40 40 41 40 36 31 27 25 25 25 25 23 23 22 21 18 16 16 16 16 15 15 15 15 15 14 14 16 18 19 18 16 14 12 11 11 10 9 10 11 12 11 9 7 6 6 6 7 8
10 9 10 11 10 11 13 13 14 16 16 18 22 24 26 25 15 8 12 28 18 8 6 21 33 46 49 43 42 44 43 42 42 40 39 39 39 39 40 39 34 28 25 24 24 23 23 22 21 19 17 15 15 15 15 15 15 15 15 15 14 14 15 17 18 18 17 14 13 12 11 10 9 9 11 12 11 9 8 6 6 6 7 7 8
9 8 8 10 10 11 13 14 15 16 16 18 22 22 23 21 9 9 12 35 30 14 15 25 29 38 45 42 41 43 41 39 39 38 36 35 34 34 36 37 33 28 26 26 24 23 21 20 18 16 15 15 16 15 15 14 14 14 15 13 12 13 15 16 16 16 15 14 13 12 10 9 9 10 11 12 10 9 8 7 7 7 7 7 8
8 7 8 9 10 11 12 13 15 17 16 18 21 21 18 17 15 17 26 36 32 24 24 27 32 41 43 38 37 40 39 38 38 36 35 34 31 30 32 33 31 29 28 27 25 22 20 18 16 15 17 17 16 15 14 14 14 13 13 12 11 12 13 14 14 14 14 13 12 11 9 9 10 11 12 11 11 9 9 8 8 8 8 8 8
9 9 9 10 10 11 13 14 15 17 18 18 19 20 20 20 23 27 29 28 26 24 24 25 31 37 38 37 38 38 36 36 36 35 33 30 28 29 30 30 30 29 28 26 24 22 20 19 19 19 19 18 16 15 15 15 14 14 13 13 13 14 14 15 15 15 14 13 11 10 9 9 10 12 12 12 12 11 10 10 9 9 9 9 8
10 11 11 12 13 13 14 16 16 16 17 18 17 19 21 21 21 23 24 22 20 20 22 27 31 34 36 37 37 35 34 34 34 32 30 27 26 27 29 28 28 27 26 25 25 23 22 22 22 21 20 18 18 18 18 16 16 15 14 14 14 15 15 16 15 15 14 12 11 10 10 10 11 13 14 15 14 13 12 10 10 9 10 9 9
11 12 12 12 13 14 15 16 16 15 15 16 17 18 18 17 18 20 21 20 18 18 21 25 28 29 30 30 30 32 34 34 32 30 29 28 28 27 26 25 25 24 24 25 24 24 24 24 23 22 21 21 21 20 18 17 16 16 15 14 14 14 14 15 15 14 13 12 11 11 11 12 14 16 17 17 16 14 12 11 10 10 10 10 9
10 11 11 11 12 13 14 14 14 13 14 15 16 16 15 15 16 17 17 17 17 19 20 20 21 22 22 21 23 28 32 32 30 29 28 28 27 26 24 22 21 21 21 22 23 24 25 24 24 24 24 23 22 20 19 18 17 16 15 14 13 13 14 15 15 14 13 13 13 13 13 14 16 17 18 18 17 14 12 11 11 11 11 10 8
9 9 10 10 11 12 12 12 11 12 12 12 13 13 13 14 15 15 15 15 16 18 20 20 19 19 19 19 22 26 28 28 27 26 26 26 25 23 21 20 18 18 19 20 22 23 24 24 25 26 25 22 21 19 18 17 16 15 14 13 13 14 15 16 16 16 15 15 15 15 15 16 17 19 19 18 16 14 12 11 11 11 11 10 8
8 7 8 9 9 9 8 9 10 10 10 10 10 11 11 13 14 14 15 15 15 17 20 20 20 20 19 18 20 24 25 25 25 24 23 23 22 20 19 18 18 17 18 20 21 21 23 25 26 26 23 21 20 18 15 14 13 13 12 12 13 15 15 16 16 16 16 16 16 16 16 17 18 19 19 18 15 13 11 11 11 12 12 10 8
6 6 7 8 8 7 6 7 7 8 9 9 9 9 10 11 13 14 14 15 15 17 18 19 19 19 19 18 18 20 21 21 21 21 20 20 20 19 18 18 18 17 18 18 19 20 23 25 26 24 23 21 19 16 15 14 13 12 11 11 13 14 14 14 14 14 14 15 16 16 17 18 19 19 18 16 14 12 11 11 12 12 12 10 8
8 8 9 9 8 7 6 5 5 6 7 7 7 8 8 8 10 11 13 14 15 17 17 18 18 19 18 17 17 17 17 17 17 17 17 18 18 18 18 18 17 17 17 18 19 21 24 25 25 24 23 21 18 17 16 15 13 12 10 10 11 12 12 12 12 13 13 14 15 16 17 18 18 18 16 14 12 12 12 13 13 13 11 9 7
9 9 10 10 9 8 7 5 4 4 4 3 4 5 6 6 7 8 9 9 11 13 15 16 17 18 17 17 16 16 16 16 16 16 16 16 17 17 17 17 17 18 18 19 21 23 25 25 25 24 21 19 18 17 16 15 13 11 9 8 8 9 10 11 11 12 12 13 13 14 15 16 16 15 13 13 13 13 13 14 14 13 11 9 8
11 11 10 9 9 8 7 6 5 4 3 2 3 3 3 3 5 6 7 8 9 10 11 12 14 15 15 15 15 15 16 16 16 15 15 15 15 16 16 16 18 19 19 19 22 24 25 25 24 22 20 19 17 16 15 14 12 10 9 8 7 8 8 8 9 9 9 10 10 11 12 12 12 13 13 14 14 15 15 14 14 12 11 9 8
15 14 13 12 11 9 8 7 6 5 4 4 3 3 3 2 1 2 4 6 9 10 10 12 13 15 15 16 16 16 16 16 16 16 15 14 15 16 16 16 18 19 20 20 23 25 25 24 23 21 19 18 16 15 15 14 12 11 11 9 7 6 5 5 5 6 8 9 10 10 10 11 12 13 14 14 14 14 14 14 13 12 10 9 9
18 16 15 14 13 11 10 9 9 9 8 6 5 5 4 5 5 5 4 3 5 7 8 9 12 14 16 17 17 17 16 16 16 15 14 14 14 15 16 16 18 20 21 22 24 25 24 24 22 20 19 18 17 16 16 14 14 14 13 10 7 5 3 3 5 7 8 9 10 10 10 11 12 12 13 13 13 13 13 12 11 10 9 9 9
21 19 18 17 16 15 14 13 12 11 10 10 9 7 6 6 6 5 4 2 1 3 4 5 6 9 12 14 16 16 16 15 15 14 14 14 15 16 16 17 18 20 22 24 24 24 23 22 21 20 19 19 18 17 17 16 15 15 14 11 8 6 4 4 5 6 7 9 9 10 11 11 12 12 12 11 11 11 11 10 10 9 9 9 7
Wind_Direction
207 208 208 209 210 210 211 212 212 214 216 216 217 218 220 220 221 223 224 225 226 226 228 230 231 231 229 230 232 233 235 236 237 237 236 237 236 234 234 235 236 236 236 237 236 235 234 235 236 233 230 228 227 227 228 229 231 231 230 230 227 229 235 230 230 248 260 262 265 268 280 292 297 306 309 303 297 283 276 278 280 284 288 289 290
207 208 208 208 210 211 211 212 212 214 215 216 217 218 220 220 220 221 222 223 225 226 227 229 230 230 229 230 231 232 234 236 236 235 236 236 234 232 232 233 235 236 236 237 236 235 235 237 238 236 234 233 231 230 229 227 228 230 230 232 233 235 237 236 237 245 257 267 276 282 288 291 294 301 305 299 296 288 279 277 280 283 286 289 290
208 208 207 208 210 210 211 211 212 213 214 216 217 218 220 220 220 220 220 222 224 225 227 228 229 229 228 229 230 230 232 234 235 234 235 236 234 232 232 233 235 235 235 236 236 236 236 237 238 237 236 235 234 232 231 230 230 232 234 235 238 240 240 242 245 247 257 269 277 281 284 287 291 297 298 295 295 294 290 289 290 290 291 292 292
207 206 207 208 209 210 211 211 212 213 214 215 216 218 220 220 220 219 220 221 222 224 226 227 228 228 226 227 228 229 230 232 232 233 234 236 235 233 233 234 235 236 237 237 236 236 236 237 238 237 236 237 238 235 233 234 235 235 236 238 240 244 246 248 251 253 259 269 278 281 284 287 291 295 296 295 296 295 294 295 294 294 295 294 293
205 205 206 208 208 209 210 211 212 213 213 215 216 217 219 219 220 219 219 221 222 224 225 225 226 226 226 226 226 228 230 231 231 232 233 235 235 233 233 235 236 237 238 238 237 237 237 238 239 237 235 237 240 239 236 236 238 238 239 240 242 246 250 251 254 256 258 264 273 281 285 287 289 292 293 293 295 295 294 295 295 295 296 296 296
204 204 205 206 207 209 210 211 212 212 213 214 216 217 218 219 219 219 219 220 222 223 224 224 225 226 226 226 225 227 230 231 232 232 232 232 233 232 232 235 237 238 239 239 239 239 239 239 240 237 235 236 239 240 239 237 239 240 240 240 242 244 248 252 255 256 258 260 265 272 278 283 286 288 290 291 292 293 295 297 298 299 299 300 301
202 203 204 205 207 209 210 211 211 211 213 214 215 217 217 218 218 218 219 220 221 222 223 224 225 226 226 225 225 226 228 230 232 232 230 229 230 230 231 233 235 237 238 240 241 242 241 240 239 237 235 235 236 238 239 238 239 242 242 242 242 242 244 250 254 255 257 258 260 265 270 277 281 283 286 289 289 289 293 297 301 307 309 308 306
202 203 204 205 207 209 210 210 210 211 212 213 215 216 216 217 217 218 218 219 221 222 223 224 225 226 225 225 224 225 226 228 230 230 227 226 227 229 230 232 234 235 236 239 241 242 242 241 239 237 236 237 237 237 239 238 238 242 245 243 242 242 243 248 251 253 255 256 259 264 268 272 276 279 282 285 285 288 294 296 299 306 312 310 307
201 202 203 206 209 210 209 209 210 211 211 213 214 215 216 216 217 217 218 218 220 222 223 224 225 225 225 224 223 223 224 227 229 228 224 223 224 227 229 231 232 233 235 238 240 240 240 242 242 240 238 239 240 240 241 241 240 241 243 242 242 242 242 245 248 250 252 253 257 262 266 269 272 274 277 281 283 288 294 292 291 299 306 305 304
200 201 205 208 209 209 208 208 209 209 211 212 213 214 215 215 216 216 217 218 220 221 222 223 224 224 224 222 221 222 223 226 228 227 225 223 224 225 226 228 230 232 233 235 237 238 239 242 244 242 240 241 242 242 243 242 241 243 245 244 242 241 240 242 245 248 248 249 254 258 260 264 269 269 274 283 286 286 289 288 288 295 301 300 301
200 203 207 209 208 207 207 208 208 209 211 212 212 213 213 214 215 216 217 218 219 219 220 221 223 224 224 222 221 221 223 225 227 226 225 224 225 224 224 225 227 229 232 233 234 235 237 240 242 242 241 240 241 242 242 241 240 243 246 247 246 243 242 244 246 248 248 248 254 257 254 260 269 270 274 284 287 286 290 289 286 289 292 289 291
201 205 208 208 206 206 207 207 207 209 211 212 212 212 212 213 214 215 216 217 217 218 219 221 222 223 224 223 223 222 223 225 225 224 224 224 225 225 224 223 223 226 231 233 233 234 235 233 233 237 241 241 240 241 239 238 238 240 245 248 247 244 246 250 252 253 252 252 256 258 256 261 271 276 278 284 289 290 290 285 281 281 279 271 268
203 205 207 205 205 206 206 206 207 210 211 211 212 211 212 213 214 215 216 216 216 217 218 220 221 223 223 223 223 224 225 225 224 223 223 223 224 225 224 222 221 225 231 233 233 234 231 223 221 232 240 240 239 239 237 236 235 237 243 245 243 243 247 253 256 259 259 258 257 261 263 265 272 279 284 286 287 286 282 279 281 278 270 263 265
203 205 205 205 206 205 205 206 208 210 210 210 210 210 212 214 215 215 216 215 216 217 218 219 221 223 223 224 224 225 225 225 224 222 222 222 223 223 223 221 221 226 231 234 236 234 226 217 220 231 237 238 238 237 236 236 234 235 238 238 238 242 246 249 255 258 257 256 256 261 267 269 271 279 284 280 278 277 276 279 282 276 268 267 273
203 205 204 205 206 204 205 207 208 209 209 209 209 210 212 214 215 215 215 215 217 217 218 220 221 223 224 224 225 226 226 224 223 221 221 221 220 221 220 218 221 227 231 235 237 232 223 219 224 230 232 236 238 236 235 236 234 233 234 234 235 240 244 249 255 255 253 256 260 263 267 267 265 268 271 269 268 269 271 273 275 273 273 277 280
204 204 203 205 205 205 205 206 207 207 207 207 209 211 212 214 215 215 215 217 218 219 220 221 223 224 225 225 226 227 226 224 222 221 220 218 217 217 217 217 220 225 229 233 233 228 224 223 225 228 231 233 236 235 234 234 231 230 231 231 233 237 242 246 249 249 254 258 257 257 257 256 257 260 262 262 261 263 264 265 270 272 273 278 283
206 204 205 205 205 205 206 206 206 206 205 206 209 211 213 214 215 213 214 216 217 218 220 222 223 225 225 226 226 226 225 223 222 220 218 215 212 212 215 216 217 220 225 229 230 227 224 223 222 225 229 231 232 232 231 230 229 228 227 227 229 234 237 237 237 244 255 250 240 242 246 248 251 254 255 255 255 259 258 261 272 274 267 273 282
207 206 207 207 206 206 206 206 205 204 204 207 210 211 213 214 214 213 213 215 216 218 219 221 223 224 225 226 227 226 223 222 221 217 214 212 210 209 212 214 214 216 219 223 225 224 221 220 222 223 225 228 229 227 227 227 225 224 223 223 225 227 228 228 230 236 240 234 232 236 238 240 243 245 248 252 256 261 265 269 277 272 261 265 276
206 207 209 208 207 207 206 206 206 205 206 209 211 212 213 213 212 212 213 215 217 217 218 219 221 223 225 226 227 225 222 221 219 215 212 210 209 209 210 211 214 218 217 215 215 218 220 221 224 225 224 226 226 226 225 223 222 223 223 221 222 224 223 223 226 226 226 231 235 234 232 234 238 240 248 258 263 271 274 276 274 265 260 268 276
208 209 210 209 209 209 207 206 207 207 208 211 212 213 213 212 211 211 212 215 216 216 217 218 220 222 223 224 225 223 220 220 217 213 210 209 208 208 208 209 214 220 222 218 214 216 221 225 226 226 224 222 222 222 223 222 221 223 224 223 223 224 220 216 216 221 232 240 238 234 233 234 238 246 258 267 271 273 271 265 261 261 266 272 271
211 211 211 211 211 211 210 210 210 210 212 212 212 213 213 211 211 211 212 214 214 215 216 217 218 221 221 221 222 219 217 217 215 211 210 208 206 206 208 209 213 218 222 223 222 222 224 226 227 227 223 217 217 219 222 223 221 222 226 227 225 222 214 208 214 228 241 242 235 232 233 235 245 258 267 270 267 262 256 251 252 255 257 261 261
213 212 212 212 213 213 213 213 213 213 214 213 211 213 213 211 211 211 212 213 213 215 216 216 218 219 218 219 219 215 213 215 213 210 209 206 203 205 209 212 213 212 215 220 223 226 227 227 229 231 225 216 216 218 220 222 222 223 225 222 219 218 216 217 227 237 236 231 227 228 231 238 252 263 262 250 238 237 240 239 237 241 246 257 267
216 214 214 214 215 216 216 217 217 217 216 213 212 212 211 209 210 210 210 211 212 214 215 215 216 217 217 217 215 210 208 211 211 209 207 203 201 204 210 215 213 207 208 216 221 224 227 230 234 234 225 216 213 212 214 221 223 220 216 212 212 222 227 227 231 229 223 221 221 225 234 246 254 248 226 211 209 216 225 232 243 253 260 271 279
225 221 219 219 218 218 219 219 219 220 220 217 215 215 213 210 209 208 208 208 209 212 214 214 214 215 215 214 210 204 202 204 206 207 204 201 200 203 210 215 212 205 207 215 219 220 225 229 232 229 218 209 208 208 213 221 222 216 210 210 217 224 226 225 220 214 212 214 220 229 243 247 233 209 198 200 207 216 230 249 264 267 269 279 288
236 228 227 227 226 225 224 223 221 221 220 217 216 217 216 213 211 210 208 206 208 211 212 210 210 211 212 210 205 198 196 197 199 200 200 199 200 203 208 211 209 205 208 212 213 217 222 224 223 217 208 203 205 209 213 217 215 210 208 211 216 217 217 213 208 207 210 215 225 239 235 213 198 191 193 204 212 222 240 260 271 274 277 285 291
254 241 236 235 234 233 232 231 229 227 224 220 218 218 217 214 213 212 209 208 210 212 211 209 209 209 209 207 201 192 188 190 191 191 192 196 199 202 205 206 204 202 204 206 208 213 216 214 210 204 203 204 205 206 206 205 203 205 208 209 209 209 207 205 204 209 215 220 226 222 197 185 186 190 198 211 219 231 254 269 276 280 283 287 291
312 273 257 249 244 239 235 234 234 233 230 227 225 224 221 218 216 214 210 209 211 212 211 208 208 208 207 203 192 183 181 183 183 184 186 190 195 197 198 198 197 196 198 201 203 203 201 199 199 197 195 196 195 195 195 195 198 202 202 200 200 201 200 203 210 216 218 215 206 192 183 184 191 197 206 221 237 253 262 266 273 281 285 289 294
9 342 311 286 270 256 245 240 237 234 233 230 228 226 223 219 217 216 213 210 209 208 207 208 210 211 206 193 180 174 175 177 179 181 183 185 186 187 188 190 190 191 193 193 191 189 187 182 181 182 180 178 178 181 186 190 193 195 194 191 192 194 197 203 211 213 209 200 191 186 187 192 199 207 220 241 257 259 256 259 268 278 285 291 297
31 20 360 337 317 298 280 266 256 248 242 235 231 229 227 223 221 221 219 216 213 209 205 206 209 209 202 188 177 171 170 177 182 185 185 183 182 181 183 186 187 187 188 186 179 174 172 169 168 169 171 172 174 177 182 185 187 187 189 189 190 195 202 207 211 209 203 195 190 190 193 202 211 224 241 257 258 249 251 261 269 276 283 290 296
18 18 15 7 352 334 318 304 293 282 271 259 247 239 234 228 225 225 225 223 219 215 211 208 205 198 185 173 170 170 176 186 190 189 187 184 181 180 181 183 183 181 181 180 174 168 165 163 164 167 171 173 175 177 180 183 185 186 188 191 195 202 208 209 207 203 197 193 194 196 203 215 229 243 253 254 245 243 252 261 266 273 280 286 294
8 8 7 6 3 358 349 336 325 312 297 283 269 256 246 238 231 229 229 226 221 217 214 210 202 188 172 161 164 178 194 202 199 192 186 181 178 177 178 178 177 176 175 173 169 166 164 163 164 169 173 176 177 180 183 185 188 190 190 194 202 207 208 207 204 200 197 195 198 204 213 227 240 246 246 240 237 248 257 259 264 272 276 284 301
29 26 20 16 13 10 7 359 348 333 313 289 268 251 242 236 232 230 228 226 222 216 209 199 189 181 173 168 174 185 193 199 198 190 181 176 175 174 175 175 175 175 175 172 167 164 165 165 166 170 174 176 177 181 186 189 193 197 199 202 206 207 207 207 205 203 202 201 204 211 220 231 238 235 230 233 242 252 255 257 263 267 272 292 310
53 52 49 47 41 30 22 15 3 350 334 316 292 269 254 245 236 224 215 214 213 206 197 188 181 176 175 179 185 187 185 184 184 181 174 172 172 171 171 172 172 172 173 170 164 162 165 168 170 172 175 177 179 184 190 196 202 205 205 205 206 208 210 210 209 209 209 208 213 220 225 226 224 221 223 235 246 251 254 255 257 261 278 301 311
54 51 51 53 49 41 35 33 33 25 8 0 1 344 311 280 242 194 187 197 199 182 174 175 174 167 166 175 181 179 174 170 171 172 169 167 168 167 163 162 165 169 172 171 165 162 165 169 173 176 178 180 184 189 197 204 207 205 203 205 209 211 213 213 212 212 212 214 219 225 222 214 211 215 228 239 245 249 251 247 247 266 291 304 310
52 48 47 49 52 52 49 47 51 48 36 31 31 15 351 335 312 172 139 98 33 157 151 154 159 157 156 163 165 159 158 160 163 165 164 161 162 160 154 152 156 163 168 170 168 166 169 173 179 182 182 184 189 196 203 206 202 199 202 209 213 213 211 211 213 213 214 218 221 218 210 206 209 220 235 242 243 243 242 237 247 275 293 300 307
56 53 53 55 59 65 65 62 65 65 60 56 50 40 34 30 358 286 118 86 52 347 101 119 138 146 146 148 148 146 147 151 154 156 157 156 157 156 152 152 155 157 159 164 168 170 174 179 184 187 186 186 191 196 198 198 197 203 212 219 219 213 205 204 208 211 213 214 211 203 199 203 214 227 236 239 238 234 234 241 256 276 287 294 303
56 62 71 76 78 80 78 73 71 71 71 71 68 63 63 62 18 298 76 76 64 47 71 82 94 108 115 123 132 135 137 142 145 147 148 150 153 156 156 157 157 155 157 165 170 172 174 180 186 188 185 184 188 191 193 197 205 212 216 215 210 204 199 199 203 207 205 199 193 192 196 206 219 229 233 234 232 231 236 249 261 271 281 288 298
52 58 70 80 82 80 77 73 72 71 67 66 70 69 69 72 63 51 62 70 69 67 76 82 84 88 94 108 122 127 131 135 137 138 142 146 153 159 160 160 161 161 164 170 173 172 174 179 184 184 181 182 185 189 192 197 200 199 193 186 183 187 191 194 195 195 192 189 188 193 202 212 223 232 234 234 233 234 240 249 259 266 274 283 293
54 51 50 57 63 65 64 63 66 69 65 60 63 67 66 64 64 64 70 80 85 83 84 90 94 98 107 117 123 126 129 131 133 138 144 149 156 160 161 162 165 166 168 170 171 172 174 176 177 176 178 182 184 183 182 181 178 174 171 171 175 181 186 189 188 187 187 190 194 199 208 220 232 240 241 237 235 236 239 245 254 263 272 281 289
51 47 44 47 50 52 55 56 55 58 61 61 60 65 67 66 69 74 77 81 86 93 98 100 104 112 120 125 128 130 132 134 139 145 148 151 157 162 164 165 166 166 167 169 171 174 175 172 171 173 177 178 176 173 171 169 167 169 173 176 180 185 188 190 191 192 194 198 202 209 219 228 238 244 244 237 234 236 239 243 253 264 273 281 289
55 52 48 48 50 50 51 53 51 49 55 61 63 66 70 72 75 82 86 85 84 85 87 92 102 114 122 127 133 138 140 142 148 152 152 154 158 161 162 163 163 165 167 170 173 174 170 168 169 172 173 173 170 168 168 169 171 174 178 182 186 192 195 197 200 202 204 208 214 221 227 232 238 244 244 238 233 234 237 243 255 266 273 278 286
60 62 58 53 53 54 52 51 51 51 54 58 63 68 74 78 79 83 87 90 93 95 93 95 106 118 126 135 143 145 144 148 153 154 153 155 156 157 158 160 163 168 172 173 172 169 166 167 170 172 170 170 169 169 170 174 176 177 181 186 192 197 199 202 205 208 211 216 221 226 230 234 239 243 242 237 233 232 237 249 260 267 270 273 281
61 66 71 68 63 61 58 54 53 53 54 57 65 75 83 87 89 93 97 99 104 110 112 115 123 129 135 144 151 148 147 149 152 153 153 155 155 156 158 160 163 168 171 171 169 167 167 169 170 170 170 170 171 173 175 177 178 181 186 192 197 200 202 204 207 210 215 219 223 228 232 236 239 241 237 232 230 232 241 255 265 267 268 271 277
62 65 72 75 73 72 70 65 64 65 66 67 72 83 94 98 100 104 108 111 117 124 128 133 138 139 140 147 153 151 149 151 154 154 153 155 157 158 158 158 159 162 167 171 171 169 169 170 169 169 171 172 173 176 179 179 182 188 194 199 204 206 208 211 213 217 221 223 226 231 235 237 239 237 231 226 228 234 246 262 269 267 266 267 273
62 74 76 74 73 75 78 80 79 79 82 87 89 94 102 108 112 115 118 120 126 132 136 140 144 144 143 146 150 149 148 151 153 154 154 156 158 158 158 157 157 160 165 170 172 172 172 171 170 170 172 174 174 177 180 182 187 196 203 210 217 220 223 227 229 230 230 231 233 236 238 239 237 231 225 224 229 239 255 269 272 267 262 261 269
45 55 64 66 67 70 78 88 93 88 86 93 102 105 107 111 116 123 127 128 132 137 142 146 150 149 145 145 146 147 147 149 151 152 154 157 159 159 158 158 159 160 162 164 166 169 172 173 173 173 173 173 175 178 181 185 191 199 209 221 229 232 235 239 239 237 236 236 238 241 241 237 231 225 223 228 238 249 265 273 270 263 258 256 266
37 39 51 63 70 73 74 74 78 85 92 105 116 120 126 129 127 124 124 125 132 141 148 152 155 154 149 146 146 147 147 149 151 152 155 158 160 161 162 162 163 165 165 165 166 170 173 175 175 174 173 173 175 179 183 187 191 197 206 217 226 232 238 240 239 239 240 238 238 238 234 228 223 223 230 242 251 261 270 271 264 258 254 253 266
47 49 55 63 70 75 74 69 67 69 67 61 71 86 106 137 147 144 138 133 134 140 146 151 156 157 155 152 150 149 149 150 151 153 157 161 163 166 169 171 171 171 171 171 172 175 176 177 177 176 174 175 178 181 183 184 187 191 196 204 218 234 245 246 243 239 232 224 221 221 220 223 229 238 248 256 261 265 267 264 258 252 248 251 267
52 57 59 60 60 58 52 49 52 52 42 30 34 40 33 20 46 116 127 132 137 144 151 157 161 165 166 162 158 154 153 153 153 153 157 161 166 171 175 177 176 175 174 173 174 176 178 179 180 180 179 178 181 183 184 184 187 190 193 197 208 224 242 248 237 221 210 207 210 215 224 238 249 255 259 262 262 261 260 257 251 246 245 254 267
51 56 59 61 63 63 58 52 49 45 39 35 33 30 26 23 23 24 34 91 124 134 143 153 161 166 169 168 164 159 156 153 152 151 152 156 163 169 171 173 174 174 173 171 172 175 179 183 185 185 185 186 188 188 188 190 193 193 193 193 195 198 208 222 215 207 205 209 216 226 239 252 259 261 262 260 255 252 252 250 243 241 246 256 263
51 52 52 52 52 53 53 51 47 40 35 36 38 41 48 51 41 24 3 353 62 118 129 140 153 161 164 165 164 161 156 151 150 149 150 155 162 167 170 172 176 178 176 174 175 179 184 188 191 192 193 195 196 194 194 197 199 197 194 191 189 183 176 180 192 201 207 212 220 233 247 257 264 266 262 256 250 248 247 240 233 237 248 253 255
Height
743 746 749 752 755 758 761 764 766 769 771 774 775 777 780 782 784 787 789 792 794 796 798 799 801 803 806 808 810 812 813 815 817 818 820 821 822 825 827 828 829 831 833 835 836 837 838 840 841 843 844 845 846 847 847 848 849 849 850 850 851 851 851 852 852 852 852 852 852 852 853 852 852 852 852 851 851 852 851 851 851 851 851 851 851
738 741 745 749 751 754 757 760 763 765 767 770 772 774 776 779 782 784 786 788 790 792 794 795 798 800 802 804 806 808 810 812 813 815 816 818 819 822 824 825 827 829 831 832 834 835 836 837 838 840 842 843 844 845 845 846 847 848 848 849 849 850 850 851 851 851 851 851 851 851 851 851 850 850 850 849 849 849 849 849 849 849 849 848 848
733 737 741 744 747 750 753 756 759 761 763 766 768 771 773 776 779 781 783 785 787 788 790 792 794 796 798 800 802 804 806 808 810 811 812 814 816 819 821 823 824 826 828 829 831 833 833 834 836 838 840 841 842 843 844 845 845 846 847 848 848 849 849 850 850 850 850 849 850 849 849 849 849 848 848 848 848 847 847 847 847 847 847 847 846
730 734 737 740 743 747 749 752 755 757 759 762 764 767 770 773 775 777 780 782 783 784 786 788 790 792 794 796 798 800 802 804 805 807 809 810 813 816 818 820 821 823 824 826 828 830 831 832 834 836 838 839 840 842 843 844 844 844 845 846 847 848 848 849 848 848 848 848 848 848 848 848 847 847 847 846 846 846 846 845 845 845 845 845 844
726 729 733 736 739 742 745 748 750 752 755 758 761 764 767 769 772 774 776 778 779 781 782 783 785 787 789 791 794 796 797 799 801 802 805 807 810 812 815 816 818 819 821 823 825 827 829 830 832 834 836 837 838 840 841 842 843 843 843 844 845 846 847 847 847 847 847 847 846 846 846 846 846 846 846 845 845 845 844 843 843 843 843 842 842
721 725 728 732 734 737 739 742 744 748 751 754 757 760 763 765 767 769 771 773 775 777 777 779 780 782 784 786 789 791 793 794 796 798 800 803 806 809 811 813 814 816 818 820 822 824 825 827 829 831 833 834 836 837 839 840 841 841 842 842 843 844 845 845 845 845 845 845 845 845 845 845 844 844 844 844 843 842 842 841 841 841 841 840 839
717 720 723 726 729 731 733 736 739 743 746 749 753 755 757 760 762 764 767 769 771 772 773 774 776 777 780 782 784 786 788 790 791 793 796 799 802 805 806 809 810 812 815 816 818 820 821 823 825 827 829 830 831 833 835 837 838 839 840 840 841 842 843 843 844 844 843 843 843 843 843 843 843 842 842 842 841 841 840 839 838 838 838 837 836
711 715 718 721 722 724 727 731 734 738 741 744 747 749 751 754 756 759 762 763 765 767 768 770 771 773 775 777 779 782 783 785 786 789 792 795 798 800 802 804 807 809 811 812 814 816 817 819 821 822 824 826 827 829 831 834 835 836 838 839 839 840 841 841 841 841 841 841 841 841 841 841 841 840 841 840 840 839 838 838 836 835 836 835 834
705 709 712 714 715 718 722 727 730 733 737 739 741 744 746 749 752 754 756 758 760 762 764 766 768 769 771 772 775 777 778 779 781 784 787 790 793 796 798 800 803 805 807 809 810 812 814 816 817 818 821 822 825 826 828 831 832 833 835 836 837 838 838 839 839 839 839 839 839 839 840 839 838 839 839 839 838 838 837 837 836 835 834 833 831
700 704 706 706 710 714 719 722 726 729 731 733 736 739 742 745 747 749 751 753 755 757 760 762 763 764 766 768 770 771 772 773 775 779 782 785 789 791 793 796 799 801 804 805 807 808 810 812 813 816 819 821 823 824 826 828 829 830 832 833 834 835 835 836 837 837 837 837 837 837 838 837 836 837 837 837 837 836 836 835 834 833 833 831 829
695 698 699 701 707 712 715 718 721 724 726 728 731 734 737 739 741 744 746 748 750 753 755 756 757 759 761 762 764 765 766 768 771 774 778 781 784 787 789 792 795 798 800 801 802 804 805 808 811 814 817 819 820 821 823 825 826 828 829 830 831 832 833 834 834 835 835 835 835 835 835 835 834 835 836 835 835 835 834 834 833 832 832 831 829
690 692 694 698 704 707 710 713 716 718 721 723 726 729 733 735 737 739 740 742 745 748 749 751 752 754 756 757 758 759 761 763 766 770 773 777 780 783 785 788 791 793 795 796 797 798 800 804 808 811 813 814 816 818 819 821 823 824 826 827 828 829 830 831 831 832 833 833 833 833 833 833 833 834 834 834 833 833 832 831 831 830 830 830 828
684 687 690 696 699 701 705 709 711 713 716 719 723 726 729 730 731 733 735 738 741 743 744 745 747 749 750 751 753 754 756 759 762 765 769 773 776 779 781 783 786 789 790 790 791 792 795 799 803 804 805 809 812 814 816 817 819 821 822 823 825 826 827 828 829 829 830 830 830 830 831 832 832 832 832 832 832 831 830 829 828 828 828 827 826
680 683 687 691 694 697 701 704 706 708 711 715 719 722 723 725 726 729 732 734 736 737 738 740 741 743 744 746 748 750 752 754 757 761 765 768 772 775 777 780 782 784 785 786 786 787 790 794 796 797 801 805 807 809 812 813 815 817 818 819 821 822 824 825 826 827 827 827 828 828 829 830 830 830 831 830 830 829 828 827 827 827 826 826 825
676 679 683 686 689 693 696 698 701 704 708 712 714 716 718 720 722 725 727 730 731 732 734 736 736 738 740 742 744 746 748 750 753 757 760 764 768 772 774 776 778 780 781 781 782 784 787 790 792 794 798 801 803 805 807 809 811 812 814 815 817 819 821 822 823 824 825 826 827 827 827 828 828 828 829 828 828 828 827 826 825 825 825 824 823
673 676 679 681 684 687 690 693 696 700 704 707 709 711 713 715 717 720 723 725 727 729 730 731 732 734 736 738 740 741 744 747 749 753 757 761 765 768 770 772 774 776 777 777 778 780 782 784 787 790 793 796 799 801 803 805 807 808 810 812 814 816 818 820 821 822 823 824 826 826 826 826 826 826 827 827 826 826 825 824 824 824 824 823 822
670 672 674 676 679 682 685 689 692 696 700 702 703 705 707 709 712 715 718 720 721 723 725 726 728 730 732 734 735 737 741 743 745 749 753 757 760 764 766 768 770 771 772 772 772 774 776 778 781 785 788 791 795 797 800 802 803 805 806 809 811 813 815 817 818 820 821 822 823 823 824 824 824 824 824 824 824 824 823 823 823 822 822 821 820
665 667 669 671 675 678 681 684 687 691 693 695 696 698 701 703 706 709 712 713 715 717 719 721 723 725 726 728 730 734 738 739 741 745 749 752 756 760 762 764 766 767 766 767 769 771 774 777 779 781 784 788 791 794 796 798 800 801 803 806 808 810 813 815 816 818 819 820 821 821 821 822 822 822 822 822 822 822 821 821 821 821 821 820 819
658 661 663 666 670 672 676 679 682 685 686 687 689 691 693 696 699 703 705 706 708 711 713 715 717 718 720 722 725 730 734 736 738 741 745 749 752 755 758 761 762 761 762 764 767 769 773 775 777 779 781 785 788 790 792 794 797 798 801 803 805 807 810 812 814 815 816 817 818 819 820 820 820 820 820 820 820 820 819 819 820 819 819 818 818
651 655 659 664 667 669 672 675 676 678 679 679 682 684 687 691 694 697 698 700 702 705 707 708 709 710 713 716 720 725 729 731 733 737 740 744 748 751 754 756 757 756 757 759 762 764 768 771 773 776 779 782 785 787 789 791 793 795 798 800 803 805 807 810 811 813 814 815 816 817 818 818 818 818 818 817 817 817 818 818 818 818 817 817 817
651 655 659 663 665 666 668 669 670 671 672 673 677 680 682 685 688 690 692 695 697 699 700 701 703 704 707 710 713 718 722 724 727 731 735 739 743 746 748 749 750 752 753 755 758 760 763 766 769 773 776 779 782 784 786 788 790 792 795 798 801 803 805 807 809 810 811 813 814 815 815 816 815 815 815 815 815 815 816 816 816 816 816 816 815
650 653 656 658 660 661 663 664 664 665 667 669 673 675 676 679 682 684 687 689 691 692 694 696 697 699 701 703 706 710 714 717 720 725 729 733 738 742 743 745 747 749 752 754 756 758 760 763 766 770 774 777 780 781 783 785 788 790 793 796 799 802 803 805 806 807 809 810 812 813 813 813 813 813 813 813 813 814 814 814 815 815 814 814 814
648 650 652 653 655 657 658 660 662 663 664 666 667 668 670 673 675 678 680 683 685 686 688 690 692 694 695 697 699 703 706 709 713 718 723 728 733 737 739 741 743 746 750 752 754 756 758 761 764 768 772 775 777 779 781 784 786 789 792 794 797 800 801 802 803 805 806 808 809 810 810 810 810 810 811 811 812 812 813 813 813 813 813 813 812
649 649 650 650 651 652 654 656 658 661 662 664 665 666 667 667 668 669 671 674 677 680 681 684 687 688 690 693 695 697 698 701 705 711 717 723 728 732 735 736 739 744 748 750 752 754 757 760 763 767 771 773 775 777 780 782 785 788 790 793 795 797 799 800 801 802 804 805 806 806 807 808 808 808 809 810 810 811 812 812 812 812 811 811 811
647 648 648 649 650 651 652 653 654 655 656 659 661 662 663 664 664 665 666 668 670 672 674 677 679 681 684 687 690 692 692 694 699 704 710 717 722 727 729 731 737 743 746 747 750 753 756 759 763 766 769 771 773 776 779 781 784 787 790 792 793 795 796 797 798 800 800 801 802 803 804 805 806 807 808 808 809 810 810 811 810 810 810 809 809
645 646 647 648 649 651 652 653 653 653 654 655 654 654 656 659 661 662 663 664 665 665 667 670 673 675 676 679 683 687 689 690 693 698 704 710 716 721 725 729 735 740 743 745 748 751 755 758 762 765 768 769 771 774 777 780 783 786 788 789 791 792 794 795 795 796 797 798 799 800 802 803 804 805 806 807 808 808 809 809 809 809 808 808 807
645 646 647 647 648 649 649 650 651 652 653 653 653 652 653 655 656 657 658 659 659 660 662 665 667 667 668 672 677 682 686 687 689 692 697 703 710 716 722 728 733 737 740 743 747 750 753 757 760 763 766 768 770 773 776 779 782 783 785 787 788 790 791 792 793 793 794 795 797 798 800 801 803 804 805 805 806 807 807 807 807 807 806 806 805
645 645 646 646 647 647 646 646 646 647 647 648 649 649 648 649 649 649 648 648 648 650 654 658 660 661 663 667 672 677 681 684 685 686 690 695 703 712 719 725 730 734 737 741 745 749 752 755 758 762 765 767 769 772 775 777 779 781 783 785 786 788 789 789 790 791 792 793 795 796 798 800 801 802 803 804 804 805 805 806 805 805 804 804 803
643 644 644 644 645 645 645 645 645 645 644 643 642 641 641 642 641 640 639 639 639 640 642 646 650 656 662 667 670 673 677 680 681 683 686 688 694 703 711 719 725 730 734 738 742 747 750 753 756 760 762 765 767 770 773 775 777 779 781 783 784 785 786 786 787 789 790 791 793 795 797 798 799 800 801 802 803 804 804 804 803 803 803 802 801
640 641 642 642 643 643 644 644 645 645 645 644 642 639 638 638 637 636 635 635 635 635 635 636 639 646 655 662 666 672 678 682 682 682 682 685 689 696 704 713 720 726 731 736 741 744 747 750 753 756 760 762 765 767 770 773 775 777 779 780 781 782 783 784 785 787 788 790 792 793 795 796 797 798 799 800 801 802 802 802 801 801 801 800 799
640 639 639 640 640 640 641 642 642 642 643 643 643 641 638 635 633 631 631 631 632 634 634 635 636 639 645 653 663 673 681 685 685 683 681 683 688 695 702 711 718 724 729 734 738 741 744 747 750 753 756 759 762 765 768 770 773 775 776 777 779 779 780 782 783 785 787 788 790 792 793 794 795 796 797 799 799 800 800 800 799 799 799 798 797
643 642 642 641 640 640 639 639 638 638 638 637 636 635 631 627 625 625 626 627 628 629 630 632 636 637 638 645 657 669 677 682 686 687 686 687 690 695 702 709 716 722 728 732 736 738 741 744 748 750 753 756 759 762 766 768 771 772 773 774 776 777 778 780 781 783 785 786 788 790 791 792 793 794 795 797 798 798 798 798 797 797 797 796 796
647 646 646 644 643 642 641 640 639 639 638 637 635 632 628 622 619 620 621 622 623 623 623 626 631 634 637 642 649 659 669 677 684 688 691 692 695 698 702 708 715 721 725 729 732 736 739 742 746 749 751 754 757 760 764 766 768 769 770 772 773 775 776 778 780 781 783 785 786 788 789 790 791 792 794 795 796 796 797 796 796 795 795 794 794
650 649 649 646 645 644 643 642 642 641 640 640 638 636 634 627 620 618 619 620 620 620 618 620 623 626 634 642 647 652 661 671 680 686 689 693 698 700 702 709 716 721 724 726 729 732 736 741 745 747 749 751 755 758 761 764 765 767 768 770 772 773 775 776 778 780 781 783 785 786 787 788 789 791 792 794 794 795 795 794 794 794 793 793 792
652 651 650 648 647 646 645 644 642 640 639 638 635 635 636 629 622 621 620 617 620 623 621 620 620 622 630 640 646 649 656 665 675 684 688 692 697 699 701 708 716 721 724 726 728 730 734 739 744 746 748 750 753 756 759 761 762 764 766 768 770 771 772 774 776 778 780 782 783 784 785 786 788 789 791 792 793 793 793 792 792 792 792 791 790
653 653 652 650 650 649 647 646 644 641 641 639 635 635 636 635 637 636 622 611 619 629 627 622 619 617 624 637 644 648 656 663 671 681 687 690 695 698 700 706 713 717 721 724 726 729 732 737 742 745 747 749 752 755 757 759 761 763 765 766 767 768 770 772 774 776 778 780 781 782 784 785 786 788 790 791 791 791 791 791 790 790 790 790 789
655 655 654 653 652 651 649 648 647 645 644 641 639 639 641 645 651 644 620 606 618 631 631 630 624 614 619 636 647 652 660 668 673 679 686 690 694 698 701 705 710 714 717 721 724 726 730 735 739 743 746 748 751 754 756 758 760 762 763 764 765 767 768 770 772 774 776 778 779 780 782 783 785 787 788 789 790 789 789 789 789 789 789 788 787
659 658 657 656 654 653 651 649 648 648 646 644 642 642 642 644 644 635 619 616 627 635 636 638 633 623 627 644 655 659 667 673 676 680 686 690 695 700 702 705 708 711 714 718 721 723 727 732 737 741 744 747 750 753 755 757 759 761 762 763 764 766 768 770 772 773 775 776 778 779 780 782 784 785 786 787 788 788 788 788 788 788 787 787 785
662 661 661 659 657 655 653 651 650 649 647 645 644 642 641 639 637 633 630 634 641 645 646 646 642 638 643 654 661 666 672 675 677 681 687 691 696 700 702 704 707 709 712 716 718 722 726 730 734 739 743 746 749 752 754 756 758 760 761 762 764 766 767 769 771 772 774 775 776 777 779 780 782 784 785 786 786 786 786 786 786 786 786 785 784
664 663 662 661 659 657 655 652 652 650 649 648 647 644 643 643 641 640 641 643 646 651 653 651 647 649 655 660 664 669 674 676 680 685 689 693 697 699 701 703 705 707 710 713 716 721 724 728 732 737 741 745 748 751 753 756 758 759 761 762 763 765 766 768 770 771 773 774 775 776 777 779 781 782 783 784 784 785 785 785 784 784 784 783 782
666 665 664 663 661 659 657 655 654 654 652 652 651 649 649 650 649 648 649 649 650 652 652 650 649 654 661 666 669 673 676 680 686 690 692 694 697 698 699 702 704 706 709 712 715 719 723 726 731 736 740 744 748 750 753 755 757 758 760 761 763 765 766 768 769 770 771 772 773 774 776 777 779 781 782 782 783 783 783 783 783 783 782 781 780
668 667 666 665 664 662 660 659 658 657 657 656 655 655 656 656 657 657 657 658 658 657 657 658 661 665 671 675 678 680 682 686 689 692 693 695 696 696 698 701 703 707 710 712 715 718 722 726 731 736 740 744 747 750 752 754 756 758 759 761 762 764 765 766 768 769 769 770 771 773 774 776 778 779 780 781 781 781 781 781 781 781 780 779 778
671 669 669 668 666 665 663 662 660 660 661 660 660 661 661 661 663 664 665 666 667 668 669 671 674 677 680 683 685 686 688 690 692 693 694 695 695 696 698 700 704 707 711 713 716 719 722 727 731 736 739 743 746 749 751 753 755 757 758 760 761 763 764 765 766 767 767 768 769 771 773 774 776 777 778 779 780 780 780 780 780 779 779 778 776
673 672 671 670 669 667 666 665 663 663 663 664 664 665 665 666 667 669 670 672 673 674 676 679 681 684 686 688 689 690 690 691 692 693 694 694 695 696 698 701 704 707 711 714 717 720 723 728 732 736 740 743 746 748 750 752 754 756 757 758 760 762 762 763 764 764 765 766 767 769 771 773 774 776 777 777 778 778 778 778 778 778 777 776 775
676 675 673 672 671 670 668 667 666 666 666 666 667 668 668 669 670 671 673 675 676 678 680 682 683 685 686 688 689 690 690 691 692 692 693 694 695 697 700 702 705 708 712 715 718 721 724 728 732 736 739 742 745 747 749 751 753 755 756 758 759 760 761 762 762 763 763 764 766 767 769 771 772 774 775 776 776 776 777 777 777 776 776 775 774
680 678 676 675 674 673 672 671 670 669 669 668 668 669 670 670 671 672 673 674 676 677 679 681 682 684 685 686 687 688 688 690 691 692 693 695 697 699 702 704 707 710 713 715 718 722 725 729 732 735 739 741 744 746 748 750 752 754 756 757 759 759 760 760 761 761 762 763 764 766 768 769 771 773 774 774 775 775 775 775 775 775 774 773 772
682 681 679 677 677 676 676 675 674 673 672 672 672 671 671 671 672 672 673 674 675 677 678 679 681 682 683 685 686 687 689 690 692 693 695 697 699 701 704 706 708 711 714 716 719 722 726 729 732 735 738 741 743 745 747 749 751 753 755 756 757 758 758 759 758 759 760 761 762 764 766 768 770 772 773 773 773 773 773 773 773 773 773 772 771
683 683 681 680 679 679 679 678 678 677 676 676 676 676 675 675 674 674 674 675 675 677 678 680 682 683 685 686 688 689 691 692 694 696 698 700 701 703 705 707 709 712 714 717 720 723 726 729 732 735 737 740 742 744 746 748 750 752 754 755 756 756 756 756 756 756 758 759 761 763 765 767 769 770 771 771 771 771 771 771 771 772 771 771 769
686 685 684 682 681 681 681 681 680 680 679 679 679 679 679 678 677 677 677 678 677 678 679 680 682 684 687 689 690 692 693 694 696 698 699 701 703 704 706 708 710 712 715 717 720 723 726 730 732 734 736 738 740 743 745 747 749 750 752 753 754 754 754 754 754 755 756 758 760 762 764 766 768 769 769 769 769 768 769 769 770 770 770 769 768
688 687 687 686 685 684 683 683 682 682 682 682 681 681 681 681 681 681 682 683 682 681 680 682 684 686 688 690 692 694 695 696 698 699 700 702 704 705 707 709 711 713 716 718 721 724 727 729 731 733 735 737 739 741 743 745 747 748 750 751 752 752 752 752 753 754 755 757 759 761 763 765 766 767 767 767 766 766 767 767 768 769 769 768 767
690 690 689 688 688 687 686 685 685 685 685 685 685 685 685 684 684 683 684 685 685 683 682 683 686 689 691 692 694 696 697 698 700 701 702 703 705 706 708 710 712 714 717 719 721 724 726 728 730 733 734 736 738 740 741 743 745 747 748 749 750 750 751 751 752 753 754 756 758 760 762 763 764 765 765 765 764 764 765 766 767 767 767 767 766